Retour au catalogue

DRUMS

ActifScienceSSO
NORAD 49401·PAYLOAD·🇯🇵 Japan

Lancé Nov 9, 2021 depuis Uchinoura Space Center

Loading…

Prochains Passages (prochaines 24 heures)

TLE

FraisSource: Space-Track

Époque: Sep 14, 2026, 02:15 UTC

1 49401U 21102G   26257.09402077  .00003883  00000-0  17673-3 0  9994
2 49401  97.3224 291.7594 0013133 281.9981  77.9783 15.21213734267097

Suivez DRUMS en temps réel avec AllMySat

Download on the App Store